This is the latest recevied weather packets stored in our database for station/object KG4K-13. If no packets are shown the sender has not sent any weather packets the latest 10 day(s).
| Time | Temp. | Humidity | Pressure | Rain* | Wind** | Luminosity | Snow |
|---|---|---|---|---|---|---|---|
| 1777467949 | 13.89° C | 74% | 1015.3 hPa | 0 mm | - | 132 W/m² | - |
| 1777467329 | 13.89° C | 75% | 1015.6 hPa | 0 mm | - | 149 W/m² | - |
| 1777464316 | 13.33° C | 78% | 1015.6 hPa | 0 mm | - | 77 W/m² | - |
| 1777461916 | 12.78° C | 79% | 1015.9 hPa | 0 mm | - | 37 W/m² | - |
| 1777455938 | 12.78° C | 79% | 1015.6 hPa | 0 mm | - | 0 W/m² | - |
| 1777454718 | 12.78° C | 79% | 1015.9 hPa | 0 mm | - | 0 W/m² | - |
| 1777454118 | 12.78° C | 79% | 1015.8 hPa | 0 mm | - | 0 W/m² | - |
| 1777453518 | 12.78° C | 79% | 1015.8 hPa | 0 mm | - | 0 W/m² | - |
| 1777451119 | 12.78° C | 78% | 1015.6 hPa | 0 mm | - | 0 W/m² | - |
| 1777449320 | 13.33° C | 79% | 1015.7 hPa | 0 mm | - | 0 W/m² | - |
| 1777448720 | 13.33° C | 78% | 1015.7 hPa | 0 mm | - | 0 W/m² | - |
| 1777446920 | 13.33° C | 79% | 1016 hPa | 0 mm | - | 0 W/m² | - |
| 1777437923 | 13.89° C | 69% | 1018.1 hPa | 0 mm | - | 0 W/m² | - |
| 1777434324 | 13.89° C | 69% | 1018 hPa | 0 mm | - | 0 W/m² | - |
| 1777431325 | 14.44° C | 68% | 1018.6 hPa | 0 mm | - | 0 W/m² | - |
| 1777428925 | 14.44° C | 67% | 1018.6 hPa | 0 mm | - | 0 W/m² | - |
| 1777424718 | 14.44° C | 74% | 1017.2 hPa | 0 mm | - | 0 W/m² | - |
| 1777420516 | 15° C | 72% | 1018.2 hPa | 0 mm | - | 2 W/m² | - |
| 1777419917 | 15° C | 71% | 1018.2 hPa | 0 mm | - | 5 W/m² | - |
| 1777416918 | 15.56° C | 71% | 1018 hPa | 0 mm | - | 28 W/m² | - |
| 1777416318 | 15.56° C | 69% | 1018 hPa | 0 mm | - | 47 W/m² | - |
| 1777403718 | 16.11° C | 74% | 1019.5 hPa | 0 mm | - | 337 W/m² | - |
| 1777399539 | 14.44° C | 78% | 1020.2 hPa | 0 mm | - | 284 W/m² | - |
| 1777397720 | 13.89° C | 79% | 1020.6 hPa | 0 mm | - | 120 W/m² | - |
| 1777393521 | 12.78° C | 83% | 1021.6 hPa | 0.51 mm | - | 139 W/m² | - |
* Rain latest hour (hover to see other rain measurements)
** Current wind speed in m/s (hover to see current wind gust speed)